Retour au catalogue

DELTA 1 DEB

ActifPO
NORAD 21362·DEBRIS·🇺🇸 United States

Lancé Jun 12, 1975 depuis Vandenberg Space Force Base

Loading…

Prochains Passages (prochaines 24 heures)

TLE

FraisSource: Space-Track

Époque: Sep 14, 2026, 07:08 UTC

1 21362U 75052CG  26257.29752164  .00006441  00000-0  23100-1 0  9993
2 21362  99.4223   8.1741 0590381  16.2059   7.9855 12.48468953582958

Suivez DELTA 1 DEB en temps réel avec AllMySat

Download on the App Store